Weather History for Arctic Village, AK

Change the Weather History Date:

Sunday, September 16, 2012

  Actual Average Record
Temperature  
Mean Temperature 38 °F -  
Max Temperature 44 °F 45 °F 62 °F (2006)
Min Temperature 33 °F 23 °F 12 °F (2008)
Degree Days  
Heating Degree Days 26    
Moisture  
Dew Point 36 °F    
Average Humidity 86    
Maximum Humidity 100    
Minimum Humidity 71    
Precipitation  
Precipitation 0.00 in - - ()
Sea Level Pressure  
Sea Level Pressure 29.53 in    
Wind  
Wind Speed 8 mph (NNE)    
Max Wind Speed 16 mph    
Max Gust Speed 20 mph    
Visibility 9 miles    
Events      
Averages and records for this station are not official NWS values.
T = Trace of Precipitation, MM = Missing Value Source: NWS Daily Summary

Daily Weather History Graph

Daily Weather History Graph

Search for Another Location

Airport:

Trip Planner

Search our weather history database for the weather conditions in past years. The results will help you decide how hot, cold, wet, or windy it might be!

Date:

Astronomy

Sep. 16, 2012 Rise Set
Actual Time 7:04 AM AKDT 8:06 PM AKDT
Civil Twilight 6:07 AM AKDT 9:04 PM AKDT
Nautical Twilight 4:51 AM AKDT 10:18 PM AKDT
Astronomical Twilight 3:01 AM AKDT 12:03 AM AKDT
Moon 8:48 AM AKDT (9/16) 7:10 PM AKDT (9/16)
Length of Visible Light 14h 57m
Length of Day
13h 02m
New Moon, 1% of the Moon is Illuminated
Sep 16
New Moon
Sep 22
First Quarter
Sep 29
Full
Oct 7
Last Quarter
Oct 15
New

Hourly Weather History & Observations

Time (AKDT) Temp. Windchill Dew Point Humidity Pressure Visibility Wind Dir Wind Speed Gust Speed Precip Events Conditions
12:16 AM 33.8 °F 28.6 °F 32.0 °F 93% 29.74 in 2.5 mi NNE 5.8 mph - N/A   Overcast
12:36 AM 33.8 °F 27.7 °F 32.0 °F 93% 29.74 in 4.0 mi NNE 6.9 mph - N/A   Overcast
12:56 AM 33.8 °F 27.7 °F 32.0 °F 93% 29.73 in 4.0 mi NE 6.9 mph - N/A   Overcast
1:16 AM 33.8 °F 27.7 °F 32.0 °F 93% 29.73 in 4.0 mi NNE 6.9 mph - N/A   Overcast
1:36 AM 33.8 °F 27.7 °F 32.0 °F 93% 29.72 in 4.0 mi NNE 6.9 mph - N/A   Overcast
1:56 AM 33.8 °F 28.6 °F 32.0 °F 93% 29.72 in 9.0 mi NNE 5.8 mph - N/A   Overcast
2:16 AM 33.8 °F 27.0 °F 32.0 °F 93% 29.71 in 5.0 mi NNE 8.1 mph - N/A   Overcast
2:36 AM 33.8 °F 27.0 °F 32.0 °F 93% 29.71 in 10.0 mi NE 8.1 mph - N/A   Overcast
2:56 AM 33.8 °F 26.4 °F 32.0 °F 93% 29.70 in 10.0 mi NE 9.2 mph - N/A   Overcast
3:16 AM 33.8 °F 25.8 °F 32.0 °F 93% 29.70 in 10.0 mi NE 10.4 mph - N/A   Overcast
3:36 AM 33.8 °F 26.4 °F 33.8 °F 100% 29.69 in 10.0 mi NNE 9.2 mph - N/A   Overcast
3:56 AM 33.8 °F 25.8 °F 33.8 °F 100% 29.69 in 10.0 mi NE 10.4 mph - N/A   Overcast
4:36 AM 33.8 °F 27.0 °F 33.8 °F 100% 29.68 in 10.0 mi NNE 8.1 mph - N/A   Overcast
4:56 AM 33.8 °F 25.8 °F 32.0 °F 93% 29.68 in 10.0 mi NE 10.4 mph - N/A   Overcast
5:16 AM 35.6 °F 28.6 °F 33.8 °F 93% 29.68 in 10.0 mi NE 9.2 mph - N/A   Overcast
5:36 AM 35.6 °F 29.9 °F 33.8 °F 93% 29.67 in 7.0 mi ENE 6.9 mph - N/A   Overcast
5:56 AM 33.8 °F 27.0 °F 33.8 °F 100% 29.67 in 10.0 mi NE 8.1 mph - N/A   Overcast
6:16 AM 35.6 °F 29.2 °F 33.8 °F 93% 29.66 in 10.0 mi NE 8.1 mph - N/A   Overcast
6:36 AM 35.6 °F 29.9 °F 33.8 °F 93% 29.65 in 7.0 mi NNE 6.9 mph - N/A   Overcast
6:56 AM 35.6 °F 29.2 °F 33.8 °F 93% 29.64 in 9.0 mi NE 8.1 mph - N/A   Overcast
7:16 AM 35.6 °F 29.2 °F 33.8 °F 93% 29.64 in 9.0 mi NNE 8.1 mph - N/A   Overcast
7:36 AM 35.6 °F 29.2 °F 33.8 °F 93% 29.64 in 10.0 mi NE 8.1 mph - N/A   Overcast
7:56 AM 35.6 °F 28.6 °F 33.8 °F 93% 29.63 in 10.0 mi NNE 9.2 mph - N/A   Overcast
8:16 AM 35.6 °F 28.0 °F 33.8 °F 93% 29.62 in 10.0 mi NNE 10.4 mph - N/A   Overcast
8:36 AM 35.6 °F 28.6 °F 33.8 °F 93% 29.61 in 10.0 mi NNE 9.2 mph 16.1 mph N/A   Overcast
9:16 AM 37.4 °F 30.3 °F 35.6 °F 93% 29.61 in 10.0 mi NNE 10.4 mph 17.3 mph N/A   Mostly Cloudy
9:36 AM 37.4 °F 31.4 °F 35.6 °F 93% 29.60 in 10.0 mi NNE 8.1 mph - N/A   Overcast
9:56 AM 37.4 °F 29.8 °F 35.6 °F 93% 29.60 in 10.0 mi NNE 11.5 mph 18.4 mph N/A   Overcast
10:16 AM 37.4 °F 29.8 °F 35.6 °F 93% 29.60 in 10.0 mi North 11.5 mph 16.1 mph N/A   Overcast
10:36 AM 39.2 °F 33.0 °F 35.6 °F 87% 29.60 in 10.0 mi NNE 9.2 mph - N/A   Overcast
10:56 AM 39.2 °F 32.5 °F 35.6 °F 87% 29.59 in 10.0 mi NE 10.4 mph - N/A   Overcast
11:16 AM 39.2 °F 33.6 °F 35.6 °F 87% 29.59 in 10.0 mi NE 8.1 mph - N/A   Overcast
11:36 AM 39.2 °F 33.0 °F 37.4 °F 93% 29.58 in 10.0 mi NE 9.2 mph - N/A   Overcast
11:56 AM 39.2 °F 33.0 °F 37.4 °F 93% 29.56 in 10.0 mi NNE 9.2 mph - N/A   Mostly Cloudy
12:16 PM 41.0 °F 34.7 °F 37.4 °F 87% 29.56 in 10.0 mi North 10.4 mph - N/A   Overcast
12:36 PM 41.0 °F 35.2 °F 35.6 °F 81% 29.55 in 10.0 mi NNE 9.2 mph - N/A   Overcast
12:56 PM 42.8 °F 37.0 °F 35.6 °F 76% 29.54 in 10.0 mi NNE 10.4 mph 18.4 mph N/A   Overcast
1:16 PM 42.8 °F 37.0 °F 37.4 °F 81% 29.56 in 10.0 mi North 10.4 mph - N/A   Overcast
1:36 PM 42.8 °F 36.6 °F 37.4 °F 81% 29.53 in 10.0 mi NNE 11.5 mph - N/A   Overcast
1:56 PM 42.8 °F 37.0 °F 37.4 °F 81% 29.54 in 10.0 mi North 10.4 mph 16.1 mph N/A   Overcast
2:16 PM 42.8 °F 37.0 °F 37.4 °F 81% 29.53 in 10.0 mi North 10.4 mph - N/A   Overcast
2:36 PM 42.8 °F 37.0 °F 37.4 °F 81% 29.51 in 10.0 mi North 10.4 mph - N/A   Overcast
3:16 PM 42.8 °F 35.1 °F 35.6 °F 76% 29.49 in 10.0 mi North 16.1 mph 19.6 mph N/A   Overcast
3:36 PM 44.6 °F 39.2 °F 35.6 °F 71% 29.48 in 10.0 mi North 10.4 mph - N/A   Overcast
3:56 PM 44.6 °F 40.2 °F 37.4 °F 76% 29.48 in 10.0 mi NE 8.1 mph - N/A   Overcast
4:16 PM 44.6 °F 38.8 °F 37.4 °F 76% 29.48 in 10.0 mi North 11.5 mph - N/A   Overcast
4:36 PM 44.6 °F 39.7 °F 35.6 °F 71% 29.47 in 10.0 mi North 9.2 mph - N/A   Overcast
4:56 PM 44.6 °F 39.7 °F 37.4 °F 76% 29.44 in 10.0 mi NNE 9.2 mph - N/A   Overcast
5:16 PM 44.6 °F 40.7 °F 37.4 °F 76% 29.43 in 10.0 mi NNE 6.9 mph - N/A   Overcast
5:36 PM 44.6 °F 40.2 °F 37.4 °F 76% 29.41 in 10.0 mi North 8.1 mph - N/A   Overcast
5:56 PM 44.6 °F 40.2 °F 37.4 °F 76% 29.41 in 10.0 mi North 8.1 mph - N/A   Overcast
6:16 PM 44.6 °F 39.2 °F 37.4 °F 76% 29.40 in 10.0 mi NNE 10.4 mph - N/A   Overcast
6:36 PM 44.6 °F 39.2 °F 37.4 °F 76% 29.40 in 10.0 mi NNE 10.4 mph - N/A   Overcast
6:56 PM 42.8 °F 38.6 °F 37.4 °F 81% 29.38 in 10.0 mi NNE 6.9 mph - N/A   Overcast
7:16 PM 42.8 °F 38.0 °F 37.4 °F 81% 29.37 in 10.0 mi NNE 8.1 mph - N/A   Overcast
7:36 PM 42.8 °F 37.0 °F 37.4 °F 81% 29.35 in 10.0 mi NE 10.4 mph - N/A   Overcast
7:56 PM 42.8 °F 37.5 °F 37.4 °F 81% 29.34 in 10.0 mi NNE 9.2 mph - N/A   Overcast
8:16 PM 42.8 °F 37.5 °F 37.4 °F 81% 29.33 in 10.0 mi ENE 9.2 mph - N/A   Overcast
8:36 PM 42.8 °F 38.0 °F 37.4 °F 81% 29.31 in 10.0 mi NE 8.1 mph 16.1 mph N/A   Overcast
8:56 PM 42.8 °F 38.6 °F 37.4 °F 81% 29.30 in 10.0 mi NNE 6.9 mph - N/A   Overcast
9:16 PM 42.8 °F 39.3 °F 37.4 °F 81% 29.29 in 10.0 mi North 5.8 mph - N/A   Overcast
9:36 PM 42.8 °F 37.0 °F 37.4 °F 81% 29.28 in 10.0 mi NNE 10.4 mph - N/A   Overcast
9:56 PM 42.8 °F 38.0 °F 39.2 °F 87% 29.27 in 10.0 mi North 8.1 mph - N/A   Overcast
10:16 PM 42.8 °F 39.3 °F 39.2 °F 87% 29.26 in 10.0 mi North 5.8 mph - N/A   Overcast
10:36 PM 42.8 °F 38.0 °F 39.2 °F 87% 29.25 in 10.0 mi NE 8.1 mph - N/A   Overcast
10:56 PM 42.8 °F 38.6 °F 39.2 °F 87% 29.24 in 10.0 mi NNE 6.9 mph - N/A   Overcast
11:16 PM 42.8 °F 37.5 °F 37.4 °F 81% 29.23 in 10.0 mi North 9.2 mph - N/A   Overcast
11:36 PM 44.6 °F 40.7 °F 37.4 °F 76% 29.23 in 10.0 mi NNE 6.9 mph - N/A   Overcast
11:56 PM 42.8 °F 38.6 °F 37.4 °F 81% 29.22 in 10.0 mi NE 6.9 mph 17.3 mph N/A   Overcast